Theta_e
294 290 288 291 292 293 290 287 287 290 293 291 290 291 294 296 296 296 297 298 298 299 301 302 305 327 335 335 334 333 334 335 334 334 333 331 330 333 334 336 339 340 338 332
291 288 294 295 292 291 289 286 287 290 292 292 290 291 294 295 296 296 296 297 301 304 308 305 304 311 332 334 333 332 332 332 332 333 333 332 332 334 335 338 339 339 334 329
290 293 296 294 291 290 288 287 287 289 292 291 289 288 291 295 295 299 301 302 303 304 307 312 314 309 328 333 334 332 332 333 332 332 333 335 335 337 337 337 337 336 333 329
291 294 295 292 292 292 286 292 292 291 288 285 290 282 288 292 292 299 299 301 302 304 308 314 320 323 319 332 337 335 334 333 334 333 333 332 332 332 335 337 336 331 329 328
292 293 292 291 293 294 292 295 292 292 287 284 286 283 286 289 291 296 300 302 303 305 306 312 319 325 325 330 335 335 335 335 337 335 337 334 334 336 337 335 331 331 327 327
294 297 295 294 295 295 295 293 291 286 285 280 285 285 283 291 295 297 301 302 304 305 306 309 315 326 329 331 335 337 335 336 339 338 338 337 336 333 331 328 328 329 326 325
291 290 293 295 290 292 293 287 281 280 279 280 286 283 287 298 300 300 299 301 303 305 306 309 310 320 324 328 331 336 336 337 339 338 336 337 336 332 333 329 330 326 323 324
287 286 290 294 290 287 287 288 282 278 279 281 288 283 293 301 302 303 303 303 304 305 306 309 311 314 323 325 330 332 332 332 333 335 335 336 331 329 330 330 330 326 325 325
285 286 293 294 293 292 288 283 286 283 283 281 284 292 298 301 301 302 302 304 303 305 306 307 310 314 320 324 325 328 331 331 331 331 334 333 331 329 329 329 328 327 328 329
287 282 289 293 293 292 289 291 285 284 278 278 282 285 291 296 298 299 299 300 301 304 305 307 309 311 313 320 324 326 326 325 328 331 333 334 331 330 329 328 328 328 328 329
291 285 284 290 285 283 285 285 286 287 284 276 277 281 299 298 299 299 300 300 300 301 304 305 307 309 312 316 318 321 321 323 324 326 327 329 332 331 330 329 328 329 329 330
290 288 283 286 289 293 291 288 285 280 278 282 281 282 299 298 299 301 302 303 303 302 304 305 305 308 310 310 312 315 320 321 324 325 325 326 328 331 332 330 329 329 329 330
286 282 279 279 282 286 285 286 286 282 280 278 277 280 292 291 292 294 295 297 299 303 303 305 305 303 306 309 311 312 316 319 322 325 324 323 324 325 328 331 331 330 329 329
291 282 282 279 279 282 281 285 285 281 276 277 278 280 284 289 290 292 294 296 299 301 304 303 303 303 305 307 308 310 314 319 321 323 322 321 321 325 326 327 328 330 330 329
285 279 280 281 284 286 286 285 284 281 281 278 280 281 285 289 290 292 295 297 297 298 298 299 303 304 304 304 304 305 309 317 321 321 322 322 321 322 326 327 327 329 331 331
285 281 282 281 285 285 283 284 284 283 283 282 282 282 290 291 291 291 293 295 295 296 297 298 298 301 305 304 302 304 305 312 319 319 319 320 322 325 323 324 325 326 327 331
284 281 280 278 282 281 278 282 284 284 286 285 281 284 290 289 290 291 292 294 294 295 295 296 297 298 299 301 302 302 303 306 315 318 319 318 317 318 320 323 323 322 320 324
282 280 279 276 278 271 279 289 289 286 288 289 289 289 290 290 291 293 294 294 293 294 295 295 296 297 299 300 300 302 305 309 315 318 317 316 315 314 315 317 318 320 322 321
285 280 276 271 274 278 282 287 286 283 283 289 288 290 291 292 292 291 295 295 294 294 295 296 297 298 299 300 300 300 302 310 312 315 316 314 312 311 311 311 311 314 318 321
284 282 278 275 270 268 280 290 293 290 279 291 291 290 289 290 283 288 293 294 294 295 296 296 297 298 298 299 299 299 300 301 307 312 315 313 310 310 309 308 308 311 314 315
279 278 274 270 267 277 286 292 293 279 280 290 290 289 288 286 288 291 294 294 296 296 296 297 297 296 297 299 299 298 299 298 303 305 314 312 310 309 307 306 309 310 312 315
279 275 275 275 268 272 292 290 283 285 287 290 289 289 289 290 292 293 295 295 295 296 297 297 296 296 298 299 299 299 298 301 301 305 313 310 308 307 306 305 306 306 306 311
276 282 278 279 279 286 290 289 289 289 288 289 289 290 291 292 292 294 295 296 296 297 297 298 296 296 298 299 300 299 300 301 302 305 310 309 307 305 305 303 302 303 305 304
283 285 278 282 284 286 289 290 291 291 290 291 291 291 292 292 293 294 295 296 296 297 296 297 297 296 297 299 300 302 302 304 302 302 306 308 305 302 304 303 302 300 300 299
283 283 281 281 284 286 288 290 291 291 291 291 293 293 293 294 295 296 296 296 296 296 297 298 298 299 299 299 300 302 303 304 303 303 305 306 305 302 302 301 299 300 298 296
283 281 278 278 285 286 287 289 290 290 291 292 292 293 295 296 295 296 296 296 295 295 296 296 298 300 301 299 299 301 304 305 304 303 304 305 304 301 301 302 300 293 293 293
Wind_Speed
2 4 6 9 7 6 4 2 5 5 6 2 6 6 12 8 5 8 7 7 8 9 9 11 8 8 10 10 13 15 16 18 13 10 11 10 11 7 7 8 10 9 8 9
4 5 10 5 4 5 4 3 7 10 1 6 5 9 10 8 7 3 7 7 8 10 7 10 12 5 8 14 18 17 19 17 15 12 11 7 6 6 8 7 8 9 10 11
8 7 7 7 4 4 4 5 5 9 5 4 2 6 5 5 1 7 7 6 6 9 14 13 12 11 7 9 14 17 19 20 18 17 7 3 4 1 5 6 6 6 7 8
5 3 6 5 5 8 3 9 8 6 3 3 3 4 6 7 3 8 11 12 12 13 10 11 14 13 11 13 13 15 15 17 15 15 14 18 14 10 5 5 4 5 8 9
9 6 4 4 7 7 9 5 7 3 4 3 3 5 9 3 4 7 12 13 12 12 12 15 14 14 14 9 6 5 6 11 12 13 7 6 8 6 4 4 8 7 5 7
6 1 3 2 2 2 3 2 5 5 4 1 7 6 4 5 6 6 11 11 12 13 12 12 15 12 14 8 4 5 8 8 9 11 10 13 13 6 5 5 8 7 6 4
2 4 3 5 3 6 7 6 3 4 2 6 3 4 2 4 4 5 8 11 12 10 12 13 17 17 15 14 9 2 6 4 6 8 7 8 11 10 12 8 6 9 5 3
2 1 9 8 4 0 4 3 6 6 3 3 5 1 1 2 4 5 6 7 7 10 10 12 13 13 16 16 14 11 9 8 8 6 5 5 7 4 4 8 7 7 9 9
3 3 3 8 5 4 3 5 2 6 3 3 2 3 1 1 4 6 7 8 9 10 9 10 12 12 14 15 16 12 9 9 9 7 5 2 6 7 5 4 5 5 7 1
4 2 3 3 4 9 6 3 1 3 3 2 4 3 5 2 5 6 6 7 10 11 11 11 10 11 9 10 10 12 11 8 7 5 4 4 5 10 6 10 3 4 5 8
5 5 4 5 4 2 4 3 4 3 3 5 1 3 3 3 3 6 6 5 6 7 8 8 8 7 8 7 6 6 6 5 5 3 4 2 4 8 8 11 15 13 11 1
2 5 3 3 4 4 3 2 3 5 3 2 4 5 4 4 6 6 10 7 8 5 7 7 7 6 6 6 6 6 5 5 3 4 6 5 6 9 12 10 8 11 16 15
4 2 3 5 5 4 3 1 2 5 3 4 6 4 3 6 7 6 8 13 11 10 9 7 6 7 5 6 6 6 6 4 5 3 3 5 6 6 5 6 9 8 8 9
5 3 4 8 4 3 1 2 2 4 3 3 5 5 4 7 8 9 8 8 12 8 8 9 6 6 7 6 5 6 6 5 4 4 5 4 2 2 6 4 5 6 8 13
5 3 2 2 2 1 3 4 5 4 6 4 6 6 4 4 6 6 5 7 9 11 13 15 11 9 7 6 7 6 6 6 6 5 4 5 5 3 2 3 6 8 8 8
2 3 1 2 3 4 5 6 6 7 6 5 5 7 2 4 6 7 8 10 11 11 13 14 15 16 10 7 6 6 7 6 4 5 5 4 5 5 6 3 1 3 3 7
2 5 3 3 3 6 5 6 3 2 2 3 5 5 2 4 6 6 9 8 8 10 12 14 13 13 13 13 9 8 7 6 4 4 3 4 5 5 6 6 5 2 3 2
5 4 2 3 2 3 5 1 2 4 4 5 3 1 3 5 5 9 8 2 6 12 15 13 12 13 13 13 14 9 10 7 5 4 4 4 5 4 4 4 6 6 4 5
4 5 3 3 3 5 2 4 4 3 6 4 2 2 5 5 7 12 5 1 9 10 11 11 11 11 13 12 11 11 9 8 6 6 4 3 4 4 4 5 4 5 6 5
5 5 5 2 3 5 6 3 4 3 6 3 2 3 6 4 7 11 1 9 10 9 9 12 13 12 10 11 8 10 12 8 8 6 5 2 3 3 4 4 5 4 3 7
4 2 5 2 3 8 5 5 5 3 6 3 3 6 5 5 6 11 15 12 8 11 12 10 11 12 13 12 6 10 10 11 9 6 4 3 3 5 2 2 3 4 6 5
5 6 4 3 2 7 5 4 6 5 2 4 4 6 7 11 14 14 14 14 13 12 14 14 12 12 13 10 7 11 10 11 7 8 5 3 3 2 5 6 5 7 6 6
2 5 4 8 7 4 4 5 2 5 5 5 4 8 9 14 14 14 15 15 13 14 14 12 11 12 13 11 9 11 13 7 5 7 7 4 3 2 4 7 7 7 6 6
3 2 2 3 2 5 6 4 5 7 7 5 7 10 10 13 15 15 15 14 11 12 14 13 13 13 14 12 10 10 12 10 5 6 9 6 5 3 2 3 4 5 5 4
5 1 2 5 7 4 4 6 5 6 5 8 11 8 10 14 17 15 15 12 11 13 14 13 14 14 14 13 12 11 11 9 6 4 6 6 3 4 3 2 3 3 2 3
4 6 5 7 6 4 5 3 2 6 8 9 8 8 9 13 15 13 12 12 11 12 12 12 15 13 13 11 11 11 10 6 5 6 3 4 4 3 4 3 2 4 2 4
Wind_Direction
125 104 206 215 198 173 176 194 257 255 220 244 254 266 283 300 307 288 282 353 333 315 321 307 275 224 198 180 184 188 187 192 175 180 190 198 207 203 204 201 200 192 184 172
47 211 222 204 154 162 166 191 260 279 212 158 271 267 270 269 250 44 29 10 350 332 354 329 329 285 210 194 194 189 196 188 190 190 197 200 188 210 212 209 193 186 191 172
166 222 134 165 179 172 191 187 224 231 344 229 254 320 324 314 122 64 30 349 337 343 334 338 333 314 257 199 204 201 199 194 192 190 167 115 111 97 191 201 193 195 196 183
211 245 201 162 209 163 244 211 234 226 72 265 116 275 310 280 309 27 10 0 348 346 339 337 339 322 299 240 203 203 204 199 196 186 180 190 197 193 208 178 167 158 178 185
239 186 182 169 214 163 224 170 199 215 169 88 320 105 263 289 64 356 357 353 343 340 341 340 340 327 303 276 237 258 236 212 190 193 189 176 205 193 158 149 146 178 177 176
218 227 66 237 60 131 306 281 63 58 102 103 232 161 313 359 318 338 348 346 343 342 349 350 338 357 355 327 230 200 185 198 175 173 187 186 193 156 156 157 165 186 180 175
40 24 348 42 62 6 55 68 322 332 18 217 292 82 264 339 20 359 330 331 329 334 0 3 6 3 7 3 347 146 146 142 164 165 167 188 196 185 182 157 179 169 150 162
123 84 4 334 46 96 49 112 159 208 197 284 296 57 84 93 36 353 334 310 320 3 5 12 12 13 17 9 20 26 43 43 64 86 143 158 139 156 164 174 182 184 186 169
28 94 335 44 48 6 0 53 166 102 27 94 286 76 58 333 2 4 348 346 340 338 358 1 4 22 31 29 19 11 39 56 51 58 66 80 115 126 146 67 35 15 340 52
14 53 9 331 13 19 54 343 87 18 186 237 293 205 150 345 344 339 353 337 332 336 349 354 3 360 2 23 40 29 27 14 11 14 72 86 119 131 175 126 74 173 89 298
76 50 282 20 49 130 353 351 37 98 119 162 185 260 181 218 287 293 306 300 297 312 323 333 344 349 350 5 22 7 41 9 15 360 334 221 150 170 199 174 177 197 148 226
120 154 218 254 294 223 143 189 161 124 254 243 153 256 62 16 331 316 309 319 298 275 279 295 320 332 360 2 357 352 6 26 359 354 344 319 245 183 177 186 211 192 156 166
180 46 58 350 345 353 61 10 101 89 60 221 162 243 84 8 353 345 347 341 331 299 286 284 294 306 311 318 323 328 338 6 338 335 42 352 319 294 218 188 185 173 167 178
100 119 181 201 199 142 196 324 327 129 120 248 226 286 298 349 342 338 353 345 358 351 325 300 299 299 312 325 333 338 328 346 350 8 4 13 45 281 281 250 189 190 189 195
89 164 190 230 251 240 218 228 250 215 226 183 261 267 271 332 326 324 326 348 7 8 4 356 329 281 291 303 308 324 324 334 334 355 34 4 345 344 128 284 238 206 187 209
24 155 119 256 270 224 248 245 237 237 242 234 231 271 108 312 347 353 334 340 348 357 353 351 351 346 307 295 308 312 305 309 321 344 12 29 11 354 346 328 274 263 222 213
71 131 98 260 340 327 291 215 186 246 247 197 206 232 37 334 329 319 315 309 327 341 343 339 337 331 331 329 311 291 297 301 313 321 357 26 28 24 8 346 327 294 247 209
132 107 113 222 360 246 248 5 120 217 232 212 208 206 9 303 281 287 282 267 334 332 330 327 323 319 325 323 321 307 308 299 306 311 342 10 8 26 10 16 349 327 283 247
153 129 110 154 199 280 217 212 183 168 275 221 183 335 310 308 311 294 123 45 328 314 303 303 302 301 310 309 309 318 304 293 292 285 291 338 351 2 3 0 345 316 315 290
76 78 120 132 140 221 242 188 141 117 280 132 112 273 285 322 308 286 322 314 289 272 277 290 293 294 301 302 301 312 307 295 274 267 279 318 326 348 356 345 326 323 285 298
115 56 170 143 214 288 239 145 127 120 248 184 198 246 254 252 222 270 291 289 279 284 285 276 278 288 292 295 284 299 296 288 281 296 287 264 302 318 354 324 304 318 302 300
170 149 191 105 101 275 155 94 167 206 217 232 236 249 261 258 270 271 279 288 284 285 283 285 284 281 284 282 281 281 283 283 282 283 266 258 258 320 340 345 349 332 344 340
260 187 189 173 216 235 216 204 169 171 209 242 246 264 253 276 280 284 289 294 293 296 297 292 287 282 279 279 270 270 273 276 282 288 262 230 233 306 351 346 354 341 1 352
279 157 194 37 275 228 237 265 243 210 224 254 245 262 279 276 285 284 287 287 282 290 289 283 280 273 274 273 265 259 268 274 251 269 270 240 195 201 353 9 359 4 352 348
219 156 215 272 280 274 260 228 253 254 273 280 282 270 274 287 287 295 295 292 292 285 285 288 283 277 272 265 267 271 266 266 262 250 266 261 192 214 159 78 19 20 13 291
197 194 161 222 240 184 242 284 286 263 261 267 268 295 299 294 293 294 291 290 285 284 286 286 283 282 274 263 266 267 263 234 214 275 277 247 241 199 203 159 146 54 72 345